"Pseudo-MPEC" for P11878l

Created 2020 Oct 19 5:07:42 UT using Find_Orb

Click here for an explanation of pseudo-MPECs

 
 Astrometry: 
     P11878l  C2020 10 14]aXN\?Dla/E4BYpZF*)nsO6aZ$t7M@h0'!^tAstrometry(d[l/JF51
     P11878l  C2020 10 164C@HC$+7RZ(redacted;mn,g_Y.NCi)(-#dL_05cDX]F!bQmneuaF51
     P11878l  C2020 10 163[Oso7!8Z*tB-9nFI)/HbmH=/0#?+SAGL6^M(sWW;p/clicke?8NF51
     P11878l  C2020 10 16gTA6r*j(achcMByfI[_Z8y.cN!lo0h+(rOdZ9,:/og,HSU*86BliF51
     P11878l  C2020 10 16+U-31y(AAh#:=gN0NhtwUFc5*UKn1W!DBU'cvofjf.Q6`K3p+3Y@F51
     P11878l  C2020 10 16=hFDj:/HTDK5.G*NlJ60!K:A1M,EhRiYlR[b,%3ug5%p'*`k+gf[F51
     P11878l  C2020 10 16]w.7)-Z[Pm()(jia$e)mDytN_?Z6FaMwJ?[hereWyp.FxkNCZi!EF51
     P11878l  C2020 10 17rnjKB1aRkQRS%*#D?4w5BwhgK1Hn2GgZ780#=ooINSYLrmIajFOWF52
     P11878l  C2020 10 17K:%?'``rSb(VZy%OH'#!:)M.,4R,/W2iP9pkShDpKPJZ%L;\'V?TF52
     P11878l  C2020 10 17dKhpW`%hsH2rce;-[fbejBDp]ZwmyQWJs''Z-oS/h?(+^C9tc!_-F52
     P11878l  C2020 10 17w*#4(+9h$AJ8(sk7;dsG#p:w3o6@ltwZ9QbW\Vyaw#yYwEJlcD9fF52
     P11878l  C2020 10 17n-=\THNT)A+Exh!RORU(1,'6yk4lW(udV)A%1ubSZ-+Hforc]QomF51
     P11878l  C2020 10 174[y;qR`+Er3ymRUPM4aHvn\^+!76J*J+^fjL-5Duhk'xuTf]V=Q8F51
     P11878l  C2020 10 17!+CexplanationVCZ'^2e$hVQPEOKhu,fp`R-o9TJDRZAf;I$'4)F51
     P11878l  C2020 10 17oD4yjcJ280xcp*JfT=uXb'm]m.,K5uT^?h^c,bODs'aC220@O+RkF51
     P11878l  C2020 10 172E)YS5*Bd9'*'?G3'w2$Mxj9.dim=4Yb=lp-v8qisUq8W^t.JNfxF51
     P11878l  C2020 10 17LW74uZ'8I`UfRKM)=ErkTC]1(W?,,,*2=vG8VNQ%i`FuesX\rQMMF51
     P11878l  C2020 10 17Ne80B2=(G;5CbMTjX3YY/]-g@YrG,G2yWU1t7)vRsnkM_$arvt'ZF51
     P11878l ^C2020 10 18.40488503 02 26.159-10 03 44.89   ~AIKb 21.83GVNEOCP568
     P11878l ^C2020 10 18.40606403 02 26.184-10 03 45.79   ~AIKb 21.84GVNEOCP568
     P11878l ^C2020 10 18.40724003 02 26.206-10 03 46.71   ~AIKb 21.97GVNEOCP568
     P11878l ^C2020 10 18.40842003 02 26.235-10 03 47.66   ~AIKb 22.15GVNEOCP568
     P11878l ^C2020 10 18.40959703 02 26.261-10 03 48.60   ~AIKb 22.32GVNEOCP568
     P11878l ^C2020 10 18.41079603 02 26.286-10 03 49.55   ~AIKb 21.77GVNEOCP568
     P11878l ^C2020 10 18.41198303 02 26.315-10 03 50.50   ~AIKb 21.85GVNEOCP568

Station data:
(568) Mauna Kea  (N19.826116 W155.472200)  US/Hawaii.
(F51) Pan-STARRS 1, Haleakala  (N20.707235 W156.255910)  US/Hawaii.
   Observers N. Primak, A. Schultz, S. Watters, J. Thiel, T. Goggia. Measurer
   PS1 Science Consortium. 1.8-m Ritchey-Chrétien + CCD.
(F52) Pan-STARRS 2, Haleakala  (N20.707384 W156.255910)  US/Hawaii. 1.8-m
   Ritchey-Chrétien + CCD.

Orbital elements:  P11878l
   Perihelion 2020 Sep 25.032501 +/- 0.841 TT =  0:46:48 (JD 2459117.532501)
Epoch 2020 Oct 18.0 TT = JDT 2459140.5   Earth MOID: 0.3730   Ma: 0.0102
M   4.82628703 +/- 0.051            (J2000 ecliptic)          AutoNEOCP
n   0.21013550 +/- 0.00978          Peri.  211.40890 +/- 0.9
a   2.80201051 +/- 0.087            Node   160.67381 +/- 0.41
e   0.5141281 +/- 0.0133            Incl.   10.36466 +/- 0.17
P   4.69                   H 22.5   G  0.15   U  9.6  
q 1.36141799 +/- 0.00478    Q 4.24260304 +/- 0.161
From 25 observations 2020 Oct. 14-18; mean residual 0".13
Residuals in arcseconds: 
201014 F51  .01+  .02+    201017 F52  .13-  .07-    201018 568  .03+  .01-    
201016 F51  .01-  .12+    201017 F52  .34-  .27-    201018 568  .02+  .02+    
201016 F51  .04+  .09-    201017 F51  .19-  .01+    201018 568  .04-  .02+    
201016 F51  .03-  .01+    201017 F51  .06-  .05-    201018 568  .01+  .00     
201016 F51  .06+  .01-    201017 F51  .08+  .01+    201018 568  .01+  .01-    
201016 F51  .05-  .21-    201017 F51  .01+  .00     201018 568  .01-  .01-    
201016 F51  .01-  .03-    201017 F51  .15+  .16-    201018 568  .04+  .03-    
201017 F52  .10-  .26+    201017 F51  .04+  .03-    
201017 F52  .52+  .32+    201017 F51  .04-  .05-    

Ephemerides (geocentric):
Date (UTC) HH   RA              Dec         delta   r     elong  mag " sig PA
---- -- -- --  -------------   -----------  ------ ------ -----  --- ---- ---
2020 10 19 05  03 02 48.320   -10 13 49.21  .42854 1.3851 150.5 22.4 .537 103
2020 10 19 06  03 02 49.459   -10 14 20.41  .42862 1.3851 150.5 22.4 .554 102
2020 10 19 07  03 02 50.594   -10 14 51.55  .42869 1.3852 150.5 22.4 .571 102
2020 10 19 08  03 02 51.725   -10 15 22.62  .42877 1.3853 150.5 22.4 .589 101
2020 10 19 09  03 02 52.852   -10 15 53.63  .42884 1.3854 150.5 22.4 .607 101
2020 10 19 10  03 02 53.974   -10 16 24.58  .42891 1.3855 150.5 22.4 .625 100
2020 10 19 11  03 02 55.093   -10 16 55.46  .42899 1.3855 150.5 22.4 .643 100
2020 10 19 12  03 02 56.207   -10 17 26.28  .42906 1.3856 150.5 22.4 .662  99
2020 10 19 13  03 02 57.317   -10 17 57.03  .42914 1.3857 150.5 22.4 .681  99
2020 10 19 14  03 02 58.423   -10 18 27.72  .42921 1.3858 150.5 22.4 .700  99
2020 10 19 15  03 02 59.525   -10 18 58.35  .42929 1.3859 150.5 22.4 .719  98
2020 10 19 16  03 03 00.623   -10 19 28.90  .42937 1.3860 150.6 22.4 .739  98
2020 10 19 17  03 03 01.717   -10 19 59.40  .42944 1.3860 150.6 22.4 .759  98
2020 10 19 18  03 03 02.807   -10 20 29.83  .42952 1.3861 150.6 22.4 .779  98
2020 10 19 19  03 03 03.892   -10 21 00.19  .42959 1.3862 150.6 22.4 .800  97
2020 10 19 20  03 03 04.974   -10 21 30.49  .42967 1.3863 150.6 22.4 .821  97
2020 10 19 21  03 03 06.052   -10 22 00.73  .42975 1.3864 150.6 22.4 .842  97
2020 10 19 22  03 03 07.125   -10 22 30.90  .42982 1.3864 150.6 22.4 .863  97
2020 10 19 23  03 03 08.195   -10 23 01.00  .42990 1.3865 150.6 22.4 .885  97
2020 10 20 00  03 03 09.260   -10 23 31.04  .42998 1.3866 150.6 22.4 .906  96
2020 10 20 01  03 03 10.322   -10 24 01.01  .43006 1.3867 150.6 22.4 .928  96
2020 10 20 02  03 03 11.379   -10 24 30.92  .43013 1.3868 150.6 22.4 .951  96
2020 10 20 03  03 03 12.433   -10 25 00.76  .43021 1.3869 150.6 22.4 .973  96
2020 10 20 04  03 03 13.482   -10 25 30.54  .43029 1.3869 150.7 22.4 1.00  96
2020 10 20 05  03 03 14.528   -10 26 00.25  .43037 1.3870 150.7 22.4 1.02  96
2020 10 20 06  03 03 15.570   -10 26 29.90  .43045 1.3871 150.7 22.4 1.04  96
2020 10 20 07  03 03 16.607   -10 26 59.48  .43053 1.3872 150.7 22.4 1.07  96
2020 10 20 08  03 03 17.641   -10 27 28.99  .43060 1.3873 150.7 22.4 1.09  95
2020 10 20 09  03 03 18.670   -10 27 58.44  .43068 1.3874 150.7 22.4 1.11  95
2020 10 20 10  03 03 19.696   -10 28 27.82  .43076 1.3874 150.7 22.4 1.14  95
2020 10 20 11  03 03 20.718   -10 28 57.14  .43084 1.3875 150.7 22.4 1.16  95
2020 10 20 12  03 03 21.736   -10 29 26.39  .43092 1.3876 150.7 22.4 1.19  95
2020 10 20 13  03 03 22.749   -10 29 55.58  .43100 1.3877 150.7 22.4 1.21  95
2020 10 20 14  03 03 23.759   -10 30 24.69  .43108 1.3878 150.7 22.4 1.24  95
2020 10 20 15  03 03 24.765   -10 30 53.75  .43116 1.3879 150.7 22.4 1.26  95
2020 10 20 16  03 03 25.767   -10 31 22.73  .43125 1.3880 150.8 22.4 1.29  95
2020 10 20 17  03 03 26.766   -10 31 51.65  .43133 1.3880 150.8 22.4 1.32  95
2020 10 20 18  03 03 27.760   -10 32 20.51  .43141 1.3881 150.8 22.4 1.34  95
2020 10 20 19  03 03 28.750   -10 32 49.29  .43149 1.3882 150.8 22.4 1.37  95
2020 10 20 20  03 03 29.737   -10 33 18.01  .43157 1.3883 150.8 22.4 1.39  95
2020 10 20 21  03 03 30.720   -10 33 46.67  .43165 1.3884 150.8 22.4 1.42  95
2020 10 20 22  03 03 31.698   -10 34 15.25  .43173 1.3885 150.8 22.4 1.45  95
2020 10 20 23  03 03 32.673   -10 34 43.77  .43182 1.3886 150.8 22.4 1.48  95
2020 10 21 00  03 03 33.644   -10 35 12.23  .43190 1.3886 150.8 22.4 1.50  95
2020 10 21 01  03 03 34.612   -10 35 40.61  .43198 1.3887 150.8 22.4 1.53  95
2020 10 21 02  03 03 35.575   -10 36 08.93  .43207 1.3888 150.8 22.4 1.56  95
2020 10 21 03  03 03 36.535   -10 36 37.18  .43215 1.3889 150.8 22.4 1.59  95
2020 10 21 04  03 03 37.490   -10 37 05.37  .43223 1.3890 150.8 22.4 1.62  95